Showing default

ION SCV-002, 47504

Orbit data source: Space-Track

ION SCV-002, 47504 is a payload satellite owned by D-ORBIT (IT) in SSO that was launched on Sun, 24 Jan 2021 UTC via an FALCON 9 launch vehicle from the Air Force Eastern Test Range (AFETR). Payload-class satellites include a variety of spacecraft equipped with specific instruments for various scientific and technological missions. These include communications satellites like Starlink; space stations such as the ISS; scientific satellites like the Hubble; Earth observation satellites from companies like Planet Labs, Umbra, and HawkEye 360; GPS; miniature CubeSats for education and research; and military/defense satellites.

Loading next visibility...
Identifier
47504, 2021-006CV
Orbit
SSO
Country
Flag of ITIT
Related business
Manufacturer
D-ORBIT
Mission
Operational Commercial Technology
Bus & Motor
ION-SC, PM200
Mass
220 kg wet, 150 kg dry
Launch date (UTC)
2021-01-24 (5 years ago)
Launch vehicle
FALCON 9
Launch site
Air Force Eastern Test Range (AFETR)
Object type
Payload
Rocket body
Debris
Shape & HBR
Box, 0.2 m
Radar Cross Section
0.240 m², Medium (>0.1 m² and < 1m²)

Expand to show TLE details & history
Last TLE update: 8 hours ago

TLE from 8 hours ago
0 ION SCV-002
1 47504U 21006CV  25289.08747419  .00015512  00000-0  43107-3 0  9997
2 47504  97.1146 292.5523 0010518 286.2710  73.7378 15.36894740262449
Epoch: 2025-10-16T02:05Z
TLE epoch observation values (Epoch: 2025-10-16T02:05:57.770Z)
Latitude
0.00002°
Longitude
-123.79064°
Altitude
456.414 km
Speed
7.64 km/s
True Right ascension
19h 30m 12s
True Declination
0° 00' 00"
Sunlit
Object was in daylight at epoch
Visualization orbit readout
Latitude
Unknown
Longitude
Unknown
Altitude
Unknown
Speed
Unknown
Apparent Right ascension
Unknown
Apparent Declination
Unknown
Sunlit
N/A
Visualization observer readout
Local Sidereal Time
04:27:33
Azimuth
Unknown
Elevation
Unknown
Doppler factor
Unknown
Orbital elements
Apogee altitude
459.414 km
Perigee altitude
445.045 km
Semi-major axis
6,830.366 km
Eccentricity
0.00105
Inclination
97.1146°
RAAN
292.5523°
Arg. of periapsis
286.271°
True anomaly
73.85355°
Mean anomaly
73.7378°
Eccentric anomaly
73.79567°
Mean motion
3.84483 °/min
Orbital period
93.63 mins
BSTAR
0.00043107
Loading maneuver chart data...
Computing Atmospheric mass density...

Documentation

Showing up to 5 results
|